Broomfield, CO

2:43 PM MDT on August 19, 2017 (GMT -0600)
Jeffco

Weather History for KBJC - February, 2013

Change the Weather History Date:

Monday, February 18, 2013

  Actual Average Record
Temperature  
Mean Temperature 32 °F -  
Max Temperature 41 °F 45 °F 73 °F (2016)
Min Temperature 24 °F 25 °F -11 °F (2006)
Degree Days  
Heating Degree Days 32    
Moisture  
Dew Point 10 °F    
Average Humidity 48    
Maximum Humidity 74    
Minimum Humidity 13    
Precipitation  
Precipitation 0.00 in - - ()
Sea Level Pressure  
Sea Level Pressure 29.92 in    
Wind  
Wind Speed 6 mph (SE)    
Max Wind Speed 26 mph    
Max Gust Speed 32 mph    
Visibility 10 miles    
Events      
Averages and records for this station are not official NWS values.
T = Trace of Precipitation, MM = Missing Value Source: NWS Daily Summary

Daily Weather History Graph

Daily Weather History Graph

Search for Another Location

Airport or City:

Trip Planner

Search our weather history database for the weather conditions in past years. The results will help you decide how hot, cold, wet, or windy it might be!

Date:

Astronomy

Feb. 18, 2013 Rise Set
Actual Time 6:48 AM MST 5:40 PM MST
Civil Twilight 6:21 AM MST 6:07 PM MST
Nautical Twilight 5:49 AM MST 6:39 PM MST
Astronomical Twilight 5:18 AM MST 7:10 PM MST
Moon 11:28 AM MST (2/18) 1:30 AM MST (2/18)
Length of Visible Light 11h 46m
Length of Day
10h 51m
First Quarter, 59% of the Moon is Illuminated
Feb 18
First Quarter
Feb 25
Full
Mar 4
Last Quarter
Mar 11
New
Mar 19
First Quarter

Hourly Weather History & Observations

Time (MST) Temp. Windchill Dew Point Humidity Pressure Visibility Wind Dir Wind Speed Gust Speed Precip Events Conditions
12:16 AM 32.0 °F 24.8 °F 14.0 °F 48% 29.77 in 10.0 mi East 8.1 mph - N/A   Mostly Cloudy
12:36 AM 30.2 °F 24.3 °F 17.6 °F 60% 29.78 in 10.0 mi East 5.8 mph - N/A   Scattered Clouds
12:56 AM 30.2 °F 24.3 °F 19.4 °F 64% 29.79 in 10.0 mi SE 5.8 mph - N/A   Clear
1:16 AM 28.4 °F 24.6 °F 17.6 °F 64% 29.81 in 10.0 mi SSE 3.5 mph - N/A   Clear
1:36 AM 28.4 °F 22.2 °F 19.4 °F 69% 29.81 in 10.0 mi SE 5.8 mph - N/A   Scattered Clouds
1:56 AM 28.4 °F - 19.4 °F 69% 29.81 in 10.0 mi Calm Calm - N/A   Scattered Clouds
2:16 AM 28.4 °F 24.6 °F 19.4 °F 69% 29.83 in 10.0 mi East 3.5 mph - N/A   Clear
2:35 AM 28.4 °F 24.6 °F 19.4 °F 69% 29.83 in 10.0 mi ESE 3.5 mph - N/A   Clear
2:56 AM 28.4 °F 24.6 °F 19.4 °F 69% 29.83 in 10.0 mi SE 3.5 mph - N/A   Scattered Clouds
3:16 AM 28.4 °F - 17.6 °F 64% 29.83 in 10.0 mi Calm Calm - N/A   Clear
3:36 AM 28.4 °F - 19.4 °F 69% 29.83 in 10.0 mi Calm Calm - N/A   Clear
3:56 AM 28.4 °F - 19.4 °F 69% 29.84 in 10.0 mi Calm Calm - N/A   Clear
4:16 AM 28.4 °F 22.2 °F 19.4 °F 69% 29.84 in 10.0 mi SE 5.8 mph - N/A   Clear
4:35 AM 28.4 °F 23.3 °F 19.4 °F 69% 29.85 in 10.0 mi SE 4.6 mph - N/A   Scattered Clouds
4:56 AM 28.4 °F - 19.4 °F 69% 29.87 in 10.0 mi Calm Calm - N/A   Scattered Clouds
5:52 AM 26.6 °F - 17.6 °F 69% 29.89 in 20.0 mi Calm Calm - N/A   Scattered Clouds
7:53 AM 26.6 °F 22.6 °F 19.4 °F 74% 29.95 in 60.0 mi South 3.5 mph - N/A   Partly Cloudy
8:55 AM 30.2 °F 25.4 °F 17.6 °F 60% 29.96 in 60.0 mi South 4.6 mph - N/A   Partly Cloudy
9:55 AM 35.6 °F 32.8 °F 10.4 °F 35% 29.96 in 60.0 mi Variable 3.5 mph - N/A   Partly Cloudy
10:28 AM 37.4 °F 28.2 °F 3.2 °F 24% 29.95 in 60.0 mi NW 16.1 mph - N/A   Partly Cloudy
10:47 AM 37.4 °F 26.4 °F -2.2 °F 19% 29.96 in 60.0 mi West 23.0 mph - N/A   Partly Cloudy
11:48 AM 39.2 °F 30.2 °F -5.8 °F 15% 29.95 in 60.0 mi West 17.3 mph 24.2 mph N/A   Scattered Clouds
12:55 PM 39.2 °F 28.0 °F -7.6 °F 14% 29.95 in 60.0 mi West 26.5 mph 32.2 mph N/A   Scattered Clouds
1:55 PM 41.0 °F 31.4 °F -7.6 °F 13% 29.93 in 60.0 mi West 21.9 mph 26.5 mph N/A   Scattered Clouds
2:50 PM 41.0 °F 31.9 °F -5.8 °F 14% 29.94 in 60.0 mi West 19.6 mph 28.8 mph N/A   Scattered Clouds
4:49 PM 39.2 °F 33.0 °F -7.6 °F 14% 29.96 in 60.0 mi West 9.2 mph - N/A   Partly Cloudy
5:45 PM 35.6 °F 30.7 °F -0.4 °F 22% 29.99 in 60.0 mi North 5.8 mph - N/A   Partly Cloudy
7:46 PM 30.2 °F 23.4 °F 1.4 °F 29% 30.02 in 30.0 mi ENE 6.9 mph - N/A   Clear
8:50 PM 26.6 °F 20.0 °F 3.2 °F 37% 30.05 in 30.0 mi ESE 5.8 mph - N/A   Clear
9:48 PM 26.6 °F 19.1 °F 3.2 °F 37% 30.06 in 30.0 mi ESE 6.9 mph - N/A   Clear
10:16 PM 26.6 °F 18.2 °F 3.2 °F 37% 30.06 in 10.0 mi ESE 8.1 mph - N/A   Clear
10:36 PM 26.6 °F 18.2 °F 3.2 °F 37% 30.05 in 10.0 mi ESE 8.1 mph - N/A   Clear
10:56 PM 24.8 °F 16.9 °F 5.0 °F 43% 30.05 in 10.0 mi ESE 6.9 mph - N/A   Clear
11:16 PM 24.8 °F 17.9 °F 5.0 °F 43% 30.05 in 10.0 mi ESE 5.8 mph - N/A   Clear
11:36 PM 24.8 °F - 5.0 °F 43% 30.05 in 10.0 mi Calm Calm - N/A   Clear
11:56 PM 24.8 °F - 5.0 °F 43% 30.05 in 10.0 mi Calm Calm - N/A   Clear